QPF
0.00 0.00 0.00 0.00 0.01 0.01 0.01 0.04 0.02 0.02 0.01 0.00 0.00 0.00 0.00 0.00 0.00 0.01 0.05 0.07 0.01 0.07 0.10 0.04 0.02 0.02 0.00 0.00 0.00 0.02 0.00 0.00 0.03 0.02 0.03 0.02 0.02 0.00 0.00 0.00 0.01 0.02 0.02
0.00 0.01 0.01 0.02 0.02 0.01 0.01 0.06 0.03 0.02 0.00 0.00 0.00 0.00 0.00 0.00 0.00 0.00 0.02 0.05 0.01 0.07 0.08 0.15 0.11 0.06 0.01 0.00 0.00 0.00 0.00 0.01 0.06 0.05 0.04 0.03 0.00 0.00 0.00 0.00 0.00 0.00 0.01
0.00 0.00 0.01 0.00 0.01 0.01 0.02 0.00 0.02 0.01 0.00 0.00 0.00 0.01 0.00 0.00 0.00 0.00 0.00 0.02 0.06 0.05 0.10 0.10 0.16 0.15 0.09 0.03 0.00 0.01 0.02 0.00 0.02 0.04 0.01 0.00 0.01 0.00 0.00 0.00 0.00 0.00 0.01
0.00 0.00 0.00 0.00 0.00 0.00 0.00 0.00 0.00 0.00 0.00 0.00 0.00 0.01 0.00 0.00 0.00 0.00 0.00 0.00 0.02 0.02 0.03 0.04 0.06 0.12 0.17 0.12 0.01 0.02 0.01 0.01 0.00 0.00 0.00 0.00 0.00 0.00 0.00 0.00 0.00 0.00 0.00
0.00 0.00 0.00 0.00 0.00 0.00 0.00 0.00 0.00 0.00 0.03 0.02 0.01 0.02 0.00 0.00 0.00 0.00 0.00 0.00 0.00 0.00 0.01 0.04 0.05 0.06 0.11 0.18 0.11 0.06 0.03 0.01 0.00 0.00 0.00 0.00 0.00 0.00 0.00 0.00 0.00 0.00 0.00
0.00 0.00 0.00 0.00 0.00 0.00 0.00 0.00 0.00 0.03 0.06 0.09 0.02 0.00 0.00 0.00 0.00 0.00 0.00 0.00 0.00 0.00 0.00 0.00 0.00 0.03 0.09 0.14 0.17 0.16 0.08 0.06 0.05 0.00 0.00 0.00 0.00 0.00 0.00 0.00 0.00 0.00 0.00
0.03 0.00 0.00 0.00 0.00 0.00 0.00 0.00 0.00 0.00 0.06 0.10 0.06 0.04 0.01 0.00 0.00 0.00 0.00 0.00 0.00 0.03 0.04 0.01 0.00 0.00 0.01 0.04 0.07 0.12 0.14 0.11 0.06 0.02 0.00 0.00 0.00 0.00 0.00 0.00 0.00 0.00 0.00
0.00 0.00 0.00 0.00 0.00 0.00 0.00 0.00 0.00 0.00 0.00 0.01 0.01 0.00 0.00 0.00 0.00 0.00 0.00 0.00 0.00 0.04 0.07 0.03 0.00 0.00 0.00 0.00 0.01 0.06 0.12 0.15 0.11 0.04 0.00 0.00 0.00 0.00 0.00 0.00 0.00 0.00 0.00
0.00 0.00 0.00 0.00 0.00 0.00 0.00 0.01 0.00 0.01 0.00 0.00 0.00 0.00 0.00 0.00 0.00 0.00 0.00 0.00 0.00 0.02 0.04 0.01 0.00 0.01 0.01 0.00 0.00 0.01 0.05 0.07 0.12 0.09 0.04 0.05 0.00 0.00 0.00 0.00 0.00 0.00 0.00
0.00 0.00 0.00 0.00 0.00 0.00 0.00 0.00 0.00 0.00 0.00 0.00 0.00 0.00 0.00 0.00 0.00 0.01 0.00 0.00 0.00 0.00 0.03 0.03 0.06 0.08 0.06 0.04 0.01 0.00 0.01 0.03 0.05 0.12 0.05 0.05 0.06 0.01 0.00 0.00 0.00 0.00 0.00
0.00 0.00 0.00 0.00 0.00 0.00 0.00 0.00 0.00 0.00 0.00 0.01 0.00 0.00 0.00 0.00 0.00 0.04 0.03 0.01 0.03 0.02 0.05 0.07 0.12 0.14 0.15 0.12 0.08 0.03 0.00 0.00 0.03 0.05 0.04 0.05 0.09 0.11 0.03 0.00 0.00 0.00 0.00
0.00 0.00 0.02 0.06 0.08 0.01 0.05 0.02 0.00 0.00 0.01 0.01 0.01 0.02 0.00 0.00 0.01 0.06 0.02 0.04 0.07 0.02 0.03 0.00 0.01 0.01 0.01 0.01 0.07 0.07 0.05 0.00 0.00 0.01 0.01 0.00 0.05 0.06 0.05 0.00 0.00 0.00 0.00
0.02 0.00 0.00 0.07 0.09 0.17 0.23 0.13 0.11 0.07 0.05 0.02 0.03 0.04 0.03 0.08 0.10 0.14 0.07 0.02 0.01 0.01 0.00 0.00 0.00 0.00 0.00 0.00 0.00 0.04 0.12 0.06 0.02 0.00 0.00 0.00 0.00 0.02 0.03 0.02 0.00 0.00 0.00
0.16 0.06 0.10 0.20 0.23 0.19 0.24 0.25 0.21 0.12 0.07 0.01 0.07 0.11 0.07 0.14 0.19 0.23 0.26 0.05 0.00 0.03 0.00 0.00 0.00 0.00 0.00 0.00 0.00 0.00 0.11 0.14 0.07 0.03 0.01 0.00 0.00 0.00 0.01 0.01 0.01 0.00 0.00
0.29 0.29 0.12 0.26 0.38 0.27 0.16 0.16 0.15 0.13 0.19 0.09 0.13 0.14 0.09 0.16 0.07 0.03 0.37 0.15 0.09 0.12 0.05 0.00 0.00 0.00 0.00 0.00 0.00 0.00 0.02 0.11 0.10 0.06 0.03 0.00 0.00 0.00 0.00 0.00 0.00 0.00 0.00
0.33 0.31 0.16 0.20 0.20 0.15 0.10 0.14 0.18 0.20 0.10 0.10 0.07 0.07 0.04 0.05 0.05 0.05 0.13 0.19 0.11 0.02 0.03 0.00 0.00 0.00 0.00 0.00 0.00 0.00 0.00 0.01 0.11 0.14 0.10 0.06 0.02 0.00 0.00 0.00 0.00 0.00 0.00
0.20 0.03 0.04 0.10 0.19 0.21 0.19 0.23 0.21 0.15 0.03 0.02 0.04 0.01 0.02 0.03 0.01 0.03 0.03 0.05 0.04 0.02 0.02 0.02 0.00 0.00 0.00 0.00 0.00 0.00 0.00 0.00 0.00 0.03 0.09 0.10 0.04 0.01 0.00 0.00 0.00 0.00 0.00
0.04 0.01 0.17 0.07 0.04 0.07 0.16 0.22 0.04 0.01 0.00 0.00 0.00 0.00 0.03 0.10 0.02 0.02 0.03 0.02 0.02 0.02 0.00 0.00 0.00 0.00 0.00 0.00 0.00 0.00 0.00 0.00 0.00 0.00 0.05 0.15 0.37 0.13 0.02 0.00 0.00 0.00 0.00
0.05 0.01 0.05 0.05 0.01 0.01 0.01 0.01 0.01 0.00 0.00 0.00 0.00 0.00 0.11 0.13 0.10 0.07 0.05 0.02 0.01 0.01 0.00 0.00 0.00 0.00 0.00 0.00 0.00 0.00 0.00 0.00 0.00 0.00 0.00 0.02 0.21 0.27 0.08 0.06 0.01 0.00 0.00
0.01 0.00 0.00 0.00 0.00 0.00 0.00 0.00 0.00 0.00 0.00 0.00 0.00 0.02 0.08 0.14 0.03 0.06 0.13 0.13 0.10 0.08 0.01 0.00 0.00 0.00 0.00 0.00 0.00 0.00 0.00 0.00 0.00 0.00 0.00 0.00 0.00 0.05 0.04 0.01 0.00 0.00 0.00
0.00 0.00 0.01 0.00 0.00 0.00 0.00 0.02 0.00 0.00 0.00 0.00 0.00 0.03 0.05 0.01 0.00 0.04 0.29 0.17 0.17 0.11 0.06 0.00 0.00 0.00 0.00 0.00 0.00 0.00 0.00 0.00 0.00 0.00 0.00 0.00 0.00 0.03 0.00 0.00 0.00 0.00 0.00
0.02 0.00 0.00 0.00 0.00 0.00 0.00 0.03 0.02 0.02 0.01 0.00 0.01 0.01 0.00 0.06 0.07 0.12 0.28 0.15 0.14 0.06 0.01 0.00 0.00 0.00 0.00 0.00 0.00 0.00 0.00 0.00 0.02 0.02 0.00 0.01 0.00 0.02 0.07 0.02 0.00 0.00 0.01
0.00 0.00 0.00 0.00 0.00 0.00 0.00 0.00 0.01 0.01 0.00 0.00 0.00 0.00 0.00 0.01 0.00 0.04 0.13 0.12 0.08 0.03 0.01 0.00 0.00 0.01 0.00 0.00 0.00 0.00 0.00 0.00 0.01 0.05 0.02 0.03 0.03 0.01 0.04 0.03 0.01 0.00 0.00
0.02 0.02 0.00 0.00 0.00 0.00 0.00 0.00 0.00 0.00 0.00 0.00 0.00 0.00 0.00 0.01 0.06 0.06 0.06 0.18 0.08 0.02 0.00 0.00 0.00 0.01 0.00 0.02 0.00 0.00 0.00 0.00 0.03 0.07 0.14 0.02 0.05 0.00 0.02 0.02 0.01 0.02 0.03
0.01 0.01 0.00 0.00 0.00 0.00 0.00 0.00 0.00 0.00 0.00 0.00 0.00 0.00 0.00 0.00 0.12 0.14 0.14 0.16 0.13 0.08 0.02 0.00 0.00 0.00 0.00 0.00 0.00 0.00 0.01 0.11 0.08 0.03 0.05 0.00 0.04 0.01 0.01 0.01 0.00 0.01 0.01
0.03 0.01 0.00 0.00 0.00 0.00 0.00 0.00 0.00 0.00 0.00 0.00 0.00 0.00 0.00 0.00 0.03 0.05 0.09 0.08 0.06 0.05 0.02 0.00 0.00 0.00 0.00 0.00 0.00 0.00 0.05 0.23 0.21 0.07 0.05 0.04 0.04 0.08 0.01 0.00 0.00 0.00 0.00
MSLP
1019.89 1020.04 1020.09 1020.13 1020.31 1020.44 1020.43 1020.45 1020.63 1020.62 1020.50 1020.49 1020.44 1020.40 1020.48 1020.69 1020.87 1020.93 1020.98 1020.78 1021.26 1021.23 1021.36 1021.63 1021.71 1021.81 1021.74 1021.79 1021.74 1021.75 1021.85 1022.02 1022.07 1022.22 1022.37 1022.36 1022.65 1022.85 1023.06 1023.23 1023.46 1023.73 1024.02
1019.65 1019.89 1020.01 1020.03 1020.05 1020.18 1020.46 1020.49 1020.58 1020.55 1020.51 1020.65 1020.65 1020.64 1020.62 1020.77 1020.81 1021.01 1021.07 1020.98 1021.00 1021.20 1021.28 1021.47 1021.63 1021.71 1021.70 1021.75 1021.79 1021.86 1021.92 1022.06 1021.99 1022.09 1022.29 1022.47 1022.60 1022.84 1022.98 1023.13 1023.36 1023.65 1023.91
1019.37 1019.59 1019.86 1020.01 1019.91 1019.74 1019.99 1020.20 1020.43 1020.57 1020.62 1020.63 1020.75 1020.64 1020.77 1020.79 1020.76 1020.88 1021.02 1021.18 1020.95 1021.16 1021.33 1021.42 1021.61 1021.70 1021.66 1021.83 1021.78 1021.92 1022.10 1022.14 1022.19 1022.20 1022.27 1022.40 1022.56 1022.79 1022.96 1023.12 1023.33 1023.63 1023.90
1019.08 1019.27 1019.47 1019.60 1019.51 1019.70 1019.79 1019.88 1020.19 1020.62 1020.73 1020.83 1020.76 1020.78 1020.63 1020.81 1020.78 1020.87 1020.98 1021.08 1020.94 1021.25 1021.43 1021.39 1021.54 1021.79 1021.79 1021.83 1021.80 1021.91 1022.09 1022.21 1022.28 1022.38 1022.43 1022.49 1022.61 1022.79 1022.93 1023.08 1023.29 1023.61 1023.86
1018.79 1019.12 1019.12 1019.10 1019.09 1019.38 1019.65 1019.83 1020.28 1020.50 1020.81 1020.97 1020.93 1020.91 1020.84 1020.69 1020.52 1020.46 1020.50 1020.69 1020.76 1020.94 1021.16 1021.20 1021.22 1021.58 1021.72 1021.73 1021.78 1021.79 1021.94 1022.12 1022.29 1022.35 1022.48 1022.51 1022.65 1022.78 1022.94 1023.09 1023.31 1023.56 1023.86
1018.78 1018.95 1019.05 1019.04 1019.03 1019.31 1019.72 1019.93 1020.18 1020.46 1020.66 1020.87 1020.98 1021.11 1020.84 1020.44 1020.33 1020.32 1020.15 1020.27 1020.43 1020.62 1020.81 1021.01 1021.17 1021.27 1021.34 1021.56 1021.65 1021.76 1021.79 1021.98 1022.11 1022.33 1022.42 1022.49 1022.60 1022.81 1023.00 1023.15 1023.36 1023.57 1023.88
1018.76 1018.82 1018.94 1018.97 1018.97 1019.25 1019.40 1019.67 1019.95 1020.22 1020.63 1020.74 1020.91 1020.83 1020.38 1020.01 1019.92 1019.98 1019.97 1020.14 1020.08 1020.11 1020.27 1020.49 1020.71 1020.90 1021.04 1021.17 1021.32 1021.43 1021.68 1021.80 1021.98 1022.15 1022.30 1022.51 1022.64 1022.84 1023.09 1023.27 1023.42 1023.58 1023.82
1018.37 1018.44 1018.58 1018.74 1018.76 1019.10 1019.32 1019.57 1019.82 1020.06 1020.10 1020.22 1020.74 1021.08 1020.76 1020.00 1019.55 1019.46 1019.81 1019.88 1019.68 1019.82 1019.96 1019.99 1020.16 1020.32 1020.56 1020.78 1020.93 1021.03 1021.28 1021.48 1021.61 1021.85 1022.15 1022.42 1022.64 1022.86 1023.01 1023.25 1023.45 1023.58 1023.82
1018.02 1018.22 1018.35 1018.49 1018.50 1018.70 1019.13 1019.39 1019.58 1019.84 1019.98 1020.06 1020.26 1020.54 1020.87 1020.70 1020.08 1019.35 1019.34 1019.31 1019.34 1019.44 1019.35 1019.54 1019.60 1019.70 1019.99 1020.28 1020.46 1020.54 1020.68 1021.10 1021.28 1021.44 1021.70 1022.08 1022.40 1022.67 1022.82 1023.08 1023.39 1023.59 1023.77
1017.61 1017.78 1018.09 1018.35 1018.53 1018.70 1019.00 1019.00 1019.16 1019.45 1019.79 1019.89 1020.16 1020.17 1020.17 1020.26 1020.39 1020.09 1019.27 1018.99 1019.03 1019.00 1018.96 1018.87 1019.11 1019.25 1019.35 1019.53 1019.75 1020.02 1020.19 1020.47 1020.72 1021.01 1021.20 1021.60 1021.95 1022.30 1022.60 1022.85 1023.19 1023.55 1023.70
1017.52 1017.59 1017.86 1018.11 1018.34 1018.52 1018.70 1018.86 1019.00 1019.24 1019.41 1019.56 1019.69 1019.84 1020.09 1020.26 1020.44 1020.59 1019.79 1019.10 1018.99 1018.55 1018.16 1017.97 1018.01 1018.59 1018.75 1018.79 1018.95 1019.20 1019.60 1019.93 1020.23 1020.52 1020.80 1021.08 1021.37 1021.78 1022.15 1022.48 1022.83 1023.15 1023.52
1017.36 1017.34 1017.58 1017.88 1018.00 1018.05 1018.30 1018.16 1018.30 1018.57 1018.84 1019.06 1019.22 1019.42 1019.55 1019.85 1020.02 1020.00 1019.82 1019.24 1018.67 1017.79 1017.52 1017.26 1017.35 1017.53 1017.78 1017.90 1018.18 1018.49 1018.77 1019.20 1019.49 1019.85 1020.23 1020.51 1020.74 1021.14 1021.57 1021.88 1022.28 1022.63 1022.97
1017.36 1017.12 1017.06 1017.46 1017.95 1018.22 1018.23 1017.85 1017.93 1018.15 1018.33 1018.58 1018.60 1018.71 1018.87 1019.01 1019.08 1019.13 1019.30 1018.95 1018.61 1017.79 1017.19 1016.62 1016.38 1016.60 1016.93 1017.19 1017.38 1017.66 1018.05 1018.47 1018.91 1019.19 1019.52 1019.88 1020.25 1020.56 1020.86 1021.26 1021.58 1021.88 1022.34
1016.78 1017.14 1017.65 1018.12 1018.51 1018.58 1018.59 1018.44 1018.40 1017.94 1017.51 1017.76 1017.87 1018.17 1018.25 1018.26 1018.41 1018.42 1018.41 1018.45 1018.34 1017.86 1017.28 1016.47 1016.00 1016.10 1016.32 1016.45 1016.58 1016.94 1017.37 1017.74 1018.17 1018.51 1018.82 1019.13 1019.47 1019.80 1020.24 1020.62 1020.90 1021.25 1021.59
1016.89 1017.34 1017.24 1017.19 1017.00 1016.86 1017.12 1017.44 1017.71 1017.57 1017.27 1017.05 1017.14 1017.25 1017.40 1017.37 1017.54 1017.50 1017.62 1017.58 1017.59 1017.94 1017.41 1016.45 1016.40 1015.99 1015.89 1016.04 1016.10 1016.30 1016.66 1016.92 1017.35 1017.70 1018.13 1018.52 1018.86 1019.31 1019.57 1019.91 1020.31 1020.60 1020.97
1016.35 1016.55 1016.70 1016.45 1016.19 1015.95 1016.22 1016.40 1016.81 1016.68 1016.73 1016.36 1016.45 1016.60 1016.70 1016.65 1016.60 1016.61 1016.78 1016.81 1017.00 1017.29 1017.24 1016.47 1016.07 1015.71 1015.46 1015.47 1015.55 1015.78 1015.96 1016.26 1016.57 1016.92 1017.22 1017.67 1018.08 1018.49 1018.96 1019.29 1019.59 1020.01 1020.33
1015.99 1016.26 1016.14 1015.61 1015.74 1015.80 1016.09 1015.77 1015.74 1016.07 1015.95 1015.60 1015.74 1015.80 1015.95 1015.76 1015.79 1015.93 1015.90 1016.03 1016.13 1016.39 1016.52 1015.94 1015.79 1015.34 1015.27 1015.24 1015.15 1015.25 1015.43 1015.71 1015.94 1016.21 1016.53 1016.85 1017.44 1017.97 1018.34 1018.65 1018.91 1019.25 1019.73
1015.30 1015.64 1015.75 1015.30 1015.64 1015.74 1015.44 1015.06 1014.44 1015.13 1014.69 1014.73 1014.83 1015.09 1015.05 1015.14 1015.04 1014.88 1015.04 1015.08 1015.13 1015.29 1015.41 1015.30 1015.23 1015.15 1015.01 1014.92 1014.91 1015.14 1015.13 1015.27 1015.53 1015.73 1016.00 1016.35 1016.75 1017.02 1017.70 1018.12 1018.30 1018.50 1018.95
1014.78 1015.17 1015.10 1015.08 1015.26 1015.12 1015.03 1014.62 1014.31 1014.47 1014.33 1014.50 1014.34 1014.43 1014.22 1014.31 1014.42 1014.34 1014.34 1014.28 1014.10 1014.29 1014.51 1014.76 1014.59 1014.58 1014.60 1014.62 1014.77 1014.92 1015.14 1015.11 1015.09 1015.22 1015.58 1015.85 1016.30 1015.60 1016.87 1017.38 1017.64 1017.87 1018.21
1014.01 1014.48 1014.59 1014.51 1014.68 1014.66 1014.57 1014.52 1014.52 1014.00 1014.46 1013.99 1013.98 1013.87 1013.94 1013.71 1013.45 1013.43 1013.61 1013.86 1013.56 1013.58 1014.10 1014.41 1014.26 1014.24 1014.39 1014.33 1014.48 1014.71 1014.99 1014.93 1014.92 1014.76 1014.92 1015.27 1015.63 1016.11 1016.32 1016.45 1016.70 1017.00 1017.43
1013.66 1014.01 1013.99 1013.84 1014.15 1014.45 1014.46 1014.69 1014.67 1014.36 1014.15 1013.71 1013.80 1014.03 1013.69 1013.45 1013.08 1012.86 1013.06 1013.03 1013.19 1013.18 1013.35 1013.55 1013.69 1013.88 1013.97 1014.13 1014.26 1014.18 1014.46 1014.50 1014.47 1014.35 1014.51 1014.82 1015.09 1015.35 1015.40 1015.54 1015.75 1016.13 1016.39
1013.34 1013.64 1013.67 1013.59 1013.72 1013.78 1013.92 1014.42 1014.55 1014.40 1014.35 1013.68 1013.94 1013.44 1013.31 1013.01 1012.41 1012.20 1012.51 1012.52 1012.24 1012.34 1012.28 1012.55 1012.65 1013.01 1013.01 1013.17 1013.51 1013.74 1014.01 1014.35 1014.51 1013.71 1014.14 1013.99 1014.15 1014.43 1014.27 1014.40 1014.42 1014.71 1015.19
1013.18 1013.24 1013.36 1013.36 1013.34 1013.11 1013.00 1013.20 1013.56 1013.81 1013.69 1013.58 1013.53 1013.20 1012.93 1012.28 1011.88 1011.70 1011.79 1011.83 1011.70 1011.33 1010.78 1011.02 1011.60 1011.82 1012.12 1012.13 1012.53 1012.96 1013.23 1013.48 1013.63 1013.50 1013.83 1013.65 1013.69 1013.70 1013.25 1013.43 1013.53 1013.79 1014.11
1012.83 1012.84 1012.71 1012.75 1012.85 1012.62 1012.66 1012.86 1013.16 1013.26 1013.24 1013.21 1013.19 1013.05 1012.77 1012.26 1011.79 1011.85 1012.00 1011.73 1011.28 1010.68 1010.40 1010.55 1010.58 1010.52 1010.80 1010.97 1011.35 1011.85 1012.23 1012.62 1012.88 1012.93 1013.04 1013.47 1013.03 1012.95 1012.58 1012.51 1012.62 1012.86 1013.05
1012.67 1012.36 1012.17 1012.32 1012.48 1012.26 1012.31 1012.44 1012.83 1012.94 1013.02 1012.82 1012.60 1012.64 1012.40 1011.94 1011.22 1011.53 1011.83 1011.65 1011.56 1010.82 1009.73 1009.36 1009.21 1009.23 1009.58 1010.09 1010.42 1011.30 1011.87 1012.26 1012.24 1012.09 1012.26 1012.64 1012.65 1012.66 1012.37 1012.02 1011.71 1012.09 1012.47
1012.76 1012.58 1012.19 1012.03 1011.97 1011.69 1011.57 1011.70 1012.05 1012.36 1012.37 1012.29 1012.18 1011.98 1011.82 1011.60 1011.38 1011.34 1011.77 1010.82 1011.16 1010.29 1010.38 1010.09 1009.83 1009.97 1009.35 1009.54 1009.89 1010.46 1010.81 1010.99 1011.52 1011.29 1010.37 1011.91 1012.10 1012.46 1012.44 1011.79 1011.72 1011.61 1011.80
Thickness
5773 5771 5770 5770 5769 5767 5766 5765 5765 5764 5764 5762 5761 5760 5756 5753 5751 5748 5747 5745 5739 5737 5735 5734 5734 5733 5734 5735 5739 5740 5739 5739 5739 5739 5738 5739 5738 5736 5734 5733 5731 5729 5726
5776 5774 5773 5772 5772 5770 5767 5767 5766 5766 5766 5762 5760 5758 5756 5753 5751 5749 5748 5745 5741 5737 5735 5734 5733 5731 5732 5734 5735 5736 5737 5738 5739 5739 5739 5739 5738 5737 5736 5735 5733 5731 5729
5779 5778 5776 5773 5773 5775 5773 5770 5768 5766 5766 5764 5762 5762 5757 5756 5754 5752 5749 5744 5742 5738 5736 5734 5732 5730 5730 5730 5733 5734 5734 5735 5736 5737 5737 5738 5738 5737 5736 5736 5735 5733 5731
5783 5782 5780 5777 5777 5775 5774 5772 5770 5766 5766 5763 5762 5761 5760 5756 5756 5752 5749 5745 5744 5740 5737 5735 5733 5730 5728 5729 5729 5730 5731 5732 5733 5734 5735 5736 5737 5737 5737 5736 5736 5734 5733
5786 5783 5781 5781 5780 5779 5778 5776 5772 5770 5766 5763 5762 5760 5758 5758 5758 5756 5754 5751 5748 5744 5742 5739 5737 5733 5730 5729 5729 5729 5729 5730 5731 5732 5732 5733 5735 5736 5736 5736 5736 5735 5734
5784 5783 5782 5781 5782 5780 5777 5775 5774 5773 5769 5765 5762 5758 5758 5759 5759 5758 5757 5755 5751 5748 5745 5742 5740 5737 5734 5731 5730 5728 5728 5727 5729 5730 5731 5732 5733 5734 5734 5735 5735 5735 5733
5784 5783 5782 5782 5781 5778 5778 5777 5774 5772 5767 5766 5762 5760 5762 5764 5763 5760 5759 5756 5755 5753 5750 5748 5745 5742 5738 5735 5732 5730 5728 5727 5725 5727 5730 5730 5730 5731 5731 5732 5733 5734 5733
5785 5784 5783 5782 5782 5779 5777 5775 5772 5771 5770 5768 5760 5755 5752 5761 5765 5765 5761 5760 5760 5756 5753 5751 5748 5745 5742 5739 5736 5733 5730 5728 5727 5726 5726 5727 5728 5728 5729 5730 5731 5732 5732
5786 5783 5781 5780 5781 5779 5776 5774 5773 5769 5765 5767 5765 5759 5749 5746 5754 5765 5764 5764 5763 5761 5758 5754 5752 5750 5746 5742 5739 5737 5734 5730 5728 5727 5726 5726 5727 5727 5728 5729 5729 5730 5731
5788 5786 5782 5778 5776 5775 5773 5773 5773 5770 5767 5763 5763 5763 5762 5759 5750 5750 5763 5765 5765 5764 5762 5759 5755 5752 5750 5748 5743 5740 5738 5735 5732 5728 5727 5727 5726 5727 5727 5728 5728 5727 5729
5787 5785 5782 5779 5775 5772 5771 5769 5767 5766 5764 5762 5761 5760 5757 5755 5752 5747 5749 5757 5762 5765 5767 5767 5764 5757 5753 5752 5749 5746 5742 5738 5734 5731 5728 5727 5727 5727 5727 5727 5727 5728 5727
5787 5783 5779 5775 5773 5772 5770 5772 5771 5768 5766 5764 5762 5760 5757 5752 5749 5750 5749 5753 5759 5767 5769 5771 5768 5764 5759 5757 5753 5750 5745 5742 5738 5733 5730 5728 5728 5728 5727 5728 5728 5728 5728
5780 5781 5779 5776 5774 5769 5767 5769 5767 5766 5764 5763 5764 5762 5761 5758 5757 5755 5752 5753 5755 5765 5769 5773 5773 5768 5763 5760 5758 5753 5748 5744 5740 5736 5733 5731 5729 5728 5729 5729 5729 5731 5730
5782 5776 5773 5770 5766 5764 5762 5761 5763 5767 5768 5765 5764 5762 5762 5761 5759 5758 5757 5754 5752 5757 5764 5768 5773 5770 5767 5765 5762 5756 5751 5746 5742 5739 5737 5735 5732 5731 5729 5729 5729 5731 5731
5778 5775 5775 5775 5772 5769 5765 5763 5762 5764 5766 5765 5765 5765 5764 5765 5763 5764 5761 5762 5758 5748 5752 5764 5763 5768 5769 5767 5763 5758 5753 5750 5745 5743 5739 5737 5734 5731 5731 5730 5729 5729 5731
5781 5778 5775 5776 5776 5770 5763 5762 5760 5760 5763 5767 5766 5765 5764 5766 5766 5766 5765 5765 5761 5755 5749 5762 5765 5768 5770 5769 5766 5760 5756 5751 5749 5746 5744 5740 5738 5735 5732 5731 5731 5731 5732
5779 5775 5776 5778 5774 5768 5758 5757 5756 5755 5759 5766 5767 5766 5764 5767 5765 5765 5766 5765 5765 5761 5755 5763 5767 5770 5770 5769 5768 5764 5760 5755 5752 5749 5745 5743 5739 5736 5734 5733 5733 5733 5733
5780 5776 5774 5775 5769 5762 5757 5753 5758 5755 5758 5764 5768 5766 5766 5766 5765 5768 5767 5767 5767 5767 5764 5763 5767 5767 5768 5770 5768 5764 5761 5758 5754 5750 5746 5744 5741 5737 5735 5733 5734 5736 5735
5780 5776 5773 5772 5768 5764 5758 5757 5759 5760 5761 5762 5768 5765 5766 5766 5765 5766 5765 5765 5768 5769 5768 5765 5768 5769 5769 5769 5766 5764 5760 5759 5758 5755 5748 5744 5740 5735 5735 5735 5735 5736 5736
5782 5778 5775 5773 5769 5766 5763 5760 5758 5761 5758 5764 5765 5767 5763 5765 5766 5766 5765 5763 5767 5767 5763 5759 5765 5767 5766 5768 5766 5761 5757 5758 5757 5757 5754 5748 5741 5737 5734 5738 5740 5740 5738
5782 5778 5776 5775 5769 5764 5762 5757 5755 5758 5755 5762 5761 5759 5760 5761 5765 5767 5766 5763 5763 5759 5761 5762 5762 5764 5764 5763 5761 5763 5758 5758 5758 5760 5757 5753 5747 5743 5740 5742 5744 5743 5744
5780 5776 5774 5773 5769 5767 5764 5757 5754 5753 5751 5757 5751 5756 5757 5759 5765 5766 5764 5764 5766 5765 5766 5765 5767 5766 5768 5768 5766 5763 5760 5754 5748 5762 5756 5756 5755 5751 5750 5746 5750 5750 5749
5775 5773 5771 5770 5767 5768 5767 5763 5758 5753 5753 5752 5749 5752 5754 5760 5764 5764 5764 5763 5764 5769 5776 5775 5770 5770 5771 5774 5772 5765 5763 5759 5756 5759 5756 5755 5757 5755 5758 5756 5755 5756 5754
5769 5769 5769 5768 5765 5765 5763 5759 5756 5753 5750 5748 5747 5747 5749 5753 5759 5758 5755 5756 5761 5766 5771 5774 5776 5778 5779 5781 5778 5772 5768 5765 5762 5761 5760 5749 5758 5758 5763 5762 5762 5760 5760
5762 5765 5767 5764 5762 5763 5760 5757 5752 5749 5746 5746 5748 5745 5746 5750 5757 5753 5748 5746 5749 5757 5771 5777 5781 5784 5784 5781 5779 5772 5764 5760 5758 5762 5765 5758 5754 5754 5759 5762 5765 5761 5759
5753 5755 5758 5759 5759 5761 5760 5757 5752 5748 5746 5744 5744 5744 5745 5746 5748 5746 5739 5747 5744 5756 5759 5767 5772 5773 5779 5779 5776 5773 5767 5761 5757 5760 5773 5758 5754 5750 5748 5758 5759 5758 5756